Location: Eastchurch
(51.4000°N, 0.8667°E)
Time: 00:50:38
(UTC+00:00)

USA 59 Rocket - Pass Details

Date: 19 January 2026
Orbit: 369 x 1671 km, 63.3° (Epoch: 17 February)

Event Time Altitude Azimuth Distance (km) Brightness Sun altitude
Rises 18:11:52 0° 313° (NW) 2,332 3.5 -16.4°
Reaches altitude 10° 18:13:42 10° 311° (NW) 1,544 2.6 -16.6°
Maximum altitude 18:17:02 69° 227° (SW) 546 -0.1 -17.1°
Drops below altitude 10° 18:21:22 10° 145° (SE) 2,011 2.4 -17.8°
Enters shadow 18:21:57 - 145° (SE) 2,259 2.7 -17.9°
